Regional Weather Roundup
Issued by NWS Upton, NY

Current Version | Previous Version | Text Only | Print | Product List | Glossary On
Versions: 1 2 3 4 5 6 7 8 9 10 11 12 13 14 15 16 17 18 19 20 21 22 23 24 25 26 27 28 29 30 31 32 33 34 35 36 37 38 39 40 41 42 43 44 45 46 47 48 49 50
000 ASUS41 KOKX 041104 RWROKX REGIONAL WEATHER ROUNDUP NATIONAL WEATHER SERVICE NEW YORK NY 700 AM EDT FRI SEP 04 2015 NOTE: "FAIR" INDICATES FEW OR NO CLOUDS BELOW 12,000 FEET WITH NO SIGNIFICANT WEATHER AND/OR OBSTRUCTIONS TO VISIBILITY. NYZ071-072-176-178-NJZ106-104-041200- NEW YORK CITY METRO AREA CITY SKY/WX TMP DP RH WIND PRES REMARKS CENTRAL PARK CLEAR 77 65 66 VRB5 30.02R LAGUARDIA APRT PTCLDY 76 66 71 NE9 29.99R KENNEDY INTL PTCLDY 76 67 73 NE10 29.99R NEWARK/LIBERTY PTCLDY 75 68 78 N12 29.98R BRNX BOT. GARD N/A 73 64 73 N3 30.01R TETERBORO CLEAR 75 66 73 N3 29.98R $$ NYZ177-179-078>081-041200- LONG ISLAND NEW YORK CITY SKY/WX TMP DP RH WIND PRES REMARKS FARMINGDALE PTCLDY 74 70 87 NE7 29.99R ISLIP CLOUDY 74 71 91 NE10 29.98R FOG SHIRLEY MOCLDY 71 70 96 VRB3 30.00R FOG WESTHAMPTON MOCLDY 74 71 91 NE7 30.01R FOG MONTAUK POINT N/A 71 70 96 NE6 30.02R $$ NYZ052-065-067-041200- HUDSON VALLEY CITY SKY/WX TMP DP RH WIND PRES REMARKS WHITE PLAINS PTCLDY 72 66 81 N6 30.00R NEWBURGH CLEAR 70 63 78 NE8 30.05R MONTGOMERY CLEAR 67 64 90 N3 30.03R POUGHKEEPSIE CLEAR 68 61 78 N3 30.02R ALBANY MOCLDY 66 53 63 N8 30.07R $$ NJZ001-105-106-008-010-013-015-019>022-104-041200- NEW JERSEY CITY SKY/WX TMP DP RH WIND PRES REMARKS NEWARK/LIBERTY PTCLDY 75 68 78 N12 29.98R TETERBORO CLEAR 75 66 73 N3 29.98R CALDWELL CLEAR 72 66 81 NE3 30.00R MORRISTOWN PTCLDY 70 70 100 CALM 30.00R SOMERVILLE CLEAR 68 65 90 CALM 29.97R FOG SUSSEX CLEAR 69 65 86 NE6 30.03R ANDOVER N/A 68 67 96 VRB3 30.03R TRENTON CLEAR 73 66 78 N3 29.98R MILLVILLE CLEAR 70 68 93 CALM 29.96R FOG ATLANTIC CITY CLEAR 69 68 96 CALM 29.96R FOG WRIGHTSTOWN CLEAR 68 68 99 NE2 29.95R TOMS RIVER CLEAR 64 59 82 CALM 29.97R BELMAR CLEAR 72 64 78 NE5 29.98R $$ PAZ047>061-062-071-041200- EASTERN PENNSYLVANIA CITY SKY/WX TMP DP RH WIND PRES REMARKS PHILADELPHIA PTCLDY 77 68 73 NE7 29.97R ALLENTOWN CLEAR 72 66 81 NE8 30.00R SCRANTON CLEAR 67 64 90 E5 30.05R FOG $$ CTZ002-004>006-009-010-012-RIZ004-006-007-MAZ004-011-015-041200- SOUTHERN NEW ENGLAND IN CT CITY SKY/WX TMP DP RH WIND PRES REMARKS BRADLEY INTL CLOUDY 71 64 78 N10 30.03R HARTFORD MOCLDY 73 66 78 N9 30.02R DANBURY PTCLDY 68 62 81 E3 30.03R WTRBRY/OXFORD MOCLDY 70 61 73 NE8 30.04R BRIDGEPORT MOCLDY 74 67 78 NE6 30.00R MERIDEN PTCLDY 73 65 75 N6 30.02R NEW HAVEN PTCLDY 72 67 84 N6 30.01R CHESTER NOT AVBL GROTON MOCLDY 72 69 90 N8 30.00R WILLIMANTIC MOCLDY 73 66 78 NE9 30.03R IN RI CITY SKY/WX TMP DP RH WIND PRES REMARKS PROVIDENCE MOCLDY 70 64 81 N17 30.04R HAZE BLOCK ISLAND PTCLDY 70 70 100 NE7 30.01R WESTERLY CLEAR 71 67 87 NE6 30.02R IN MA CITY SKY/WX TMP DP RH WIND PRES REMARKS BOSTON CLOUDY 66 56 70 NE14G26 30.10R WORCESTER MOCLDY 63 55 75 NE8 30.11R WESTFIELD CLOUDY 70 61 73 N8 30.05R PROVINCETOWN N/A 68 63 83 NE15G21 30.05R NANTUCKET FOG 68 66 93 E12 29.99 VSB 1 $$ ANZ330-335-338-340-345-350-353-355-041200- COASTAL MARINE OBSERVATIONS STATION/POSITION TIME SKY/WX TEMP WIND PRES VSBY WAVE AIR SEA DIR/SP/G HT/PER (UTC) (F) (DEG/KT/KT) (MB) (MI) (FT/S) NY HARB ENTRANCE 0950 77 77 50/ 12/ 14 1013.3 1/ 6 4S FIRE IS NOT AVBL 20S FIRE ISLAND 0950 75 76 70/ 6/ 6 1013.5 1/11 GREAT SOUTH BAY 1000 74 80 40/ 8/ 12 N/A 23SW MTP 1050 73 74 70/ 12/ 16 1014.8 1/ 9 HUDSON CANYON NOT AVBL KINGS POINT 1000 74 75 30/ 5/ 9 1013.6 EXECUTION ROCKS 1000 75 10/ 10/ 12 N/A CENTRAL LI SOUND NOT AVBL EASTERN LI SOUND 1000 71 71 10/ 6/ 8 N/A ROBBINS REEF 1000 76 350/ 7/ 8 1013.0 $$ >>>>>>>>>>>>>>>>>>>>>>>>>>>> KEY <<<<<<<<<<<<<<<<<<<<<<<<<<< > < > SKY/WX - SKY CONDITION/PRESENT WEATHER < > TMP - TEMPERATURE IN FAHRENHEIT < > DP - DEWPOINT IN FAHRENHEIT < > RH - RELATIVE HUMIDITY IN PERCENT < > WIND - DIRECTION AND SPEED IN MPH < > PRES - MEAN SEA LEVEL PRESSURE IN INCHES OF HG < > WCI - WIND CHILL INDEX < > VSB - VISIBILITY IN MILES < > HX - HEAT INDEX < > TC - TEMPERATURE IN CELSIUS < > VRB - VARIABLE WIND DIRECTION < > < >>>>>>>>>>>>>>>>>>>>>>>>>>>> KEY <<<<<<<<<<<<<<<<<<<<<<<<<<<

USA.gov is the U.S. government's official web portal to all federal, state and local government web resources and services.